Location: Fort Collins
(40.5850°N, 105.0840°W)
Time: 13:03:40
(UTC-06:00)

Cosmos 2297 Rocket - Visible Passes

Search period start: 17 April 2014 00:00
Search period end: 27 April 2014 00:00
Orbit: 838 x 845 km, 71.0° (Epoch: 16 April)

Date Brightness Start Highest point End Pass type
(mag) Time Alt. Az. Time Alt. Az. Time Alt. Az.
17 Apr 4.5 05:28:00 10° N 05:32:50 28° NE 05:37:38 10° ESE visible
17 Apr 2.3 20:18:19 10° S 20:23:49 57° ESE 20:29:21 10° NNE visible
17 Apr 4.6 22:03:56 10° WSW 22:08:15 22° NW 22:12:36 10° N visible
18 Apr 4.6 05:13:04 10° N 05:17:49 27° NE 05:22:33 10° ESE visible
18 Apr 2.3 20:03:23 10° S 20:08:51 54° ESE 20:14:21 10° NNE visible
18 Apr 4.6 21:48:49 10° WSW 21:53:14 23° NW 21:57:41 10° N visible
19 Apr 4.6 04:58:08 10° N 05:02:48 26° NE 05:07:27 10° ESE visible
19 Apr 4.6 21:33:42 10° WSW 21:38:13 24° NW 21:42:46 10° N visible
20 Apr 4.7 04:43:12 10° N 04:47:47 25° NE 04:52:20 10° ESE visible
20 Apr 4.6 21:18:35 10° WSW 21:23:12 25° NW 21:27:50 10° N visible
21 Apr 4.7 04:28:16 10° N 04:32:46 24° NE 04:37:13 10° ESE visible
21 Apr 4.5 21:03:29 10° WSW 21:08:10 26° NW 21:12:54 10° N visible
22 Apr 4.7 04:13:21 10° N 04:17:44 23° NE 04:22:06 10° ESE visible
22 Apr 4.5 20:48:23 10° WSW 20:53:09 28° NW 20:57:58 10° N visible
23 Apr 4.7 03:58:26 10° N 04:02:43 22° NE 04:06:58 10° ESE visible
23 Apr 2.3 05:41:38 10° NNW 05:47:11 59° WSW 05:52:42 10° S visible
23 Apr 4.5 20:33:17 10° WSW 20:38:08 29° NW 20:43:01 10° N visible
24 Apr 4.8 03:43:30 10° N 03:47:41 21° NE 03:51:50 10° E visible
24 Apr 2.2 05:26:37 10° NNW 05:32:12 63° WSW 05:37:45 10° S visible
24 Apr 4.5 20:18:12 10° WSW 20:23:07 30° WNW 20:28:05 10° N visible
25 Apr 4.8 03:28:36 10° N 03:32:39 20° NE 03:36:41 10° E visible
25 Apr 2.2 05:11:37 10° NNW 05:17:13 66° WSW 05:22:47 10° S visible
26 Apr 4.8 03:13:41 10° N 03:17:37 19° NE 03:21:32 10° E visible
26 Apr 2.1 04:56:36 10° NNW 05:02:14 70° WSW 05:07:49 10° SSE visible
